THOR ABLESTAR DEB, 672

Orbit data source: Space-Track

THOR ABLESTAR DEB, 672 is space debris in LEO originally from a launch on Sat, 28 Sep 1963 UTC launched from the Air Force Western Test Range (AFWTR). Debris objects in space refer to the collection of defunct objects orbiting the Earth. Examples of debris include non-operational satellites, rocket bodies, and fragments generated from explosions, collisions, or faulty payload assembly.

Loading next visibility...
Identifier
672, 1963-038D
Orbit
LEO
Last TLE update
2 days ago
Origin
Manufacturer
Unknown
Mission
Spacecraft
Bus & Motor
Unknown
Mass
Unknown
Launch date (UTC)
1963-09-28 (62 years ago)
Launch vehicle
Unknown
Launch site
Air Force Western Test Range (AFWTR)
Object type
Payload
Rocket body
Debris
Shape & HBR
Unknown
Radar Cross Section
Small (<0.1 m²)

Expand to show TLE details & history

TLE from 2 days ago
0 THOR ABLESTAR DEB
1 00672U 63038D   25180.46659123  .00000167  00000-0  18332-3 0  9991
2 00672  89.9961 336.3039 0028159  51.7368  10.1127 13.68426123 53603
Epoch: 2025-06-29T11:11Z
TLE epoch observation values (Epoch: 2025-06-29T11:11:53.482Z)
Latitude
61.99456°
Longitude
-109.45199°
Altitude
995.467 km
Speed
7.37 km/s
True Right ascension
22h 25m 14s
True Declination
61° 51' 23"
Sunlit
Object was in daylight at epoch
Visualization orbit readout
Latitude
48.62886°
Longitude
-109.45565°
Altitude
992.165 km
Speed
7.371 km/s
Apparent Right ascension
03h 26m 12s
Apparent Declination
29° 18' 32"
Sunlit
Object is in daylight
Visualization observer readout
Local Sidereal Time
20:23:48
Azimuth
57.947° ENE
Elevation
7.717°
Doppler factor
1
Orbital elements
Apogee altitude
1,023.032 km
Perigee altitude
981.467 km
Semi-major axis
7,380.387 km
Eccentricity
0.00282
Inclination
89.9961°
RAAN
336.3039°
Arg. of periapsis
51.7368°
True anomaly
Unknown
Mean anomaly
10.1127°
Eccentric anomaly
Unknown
Mean motion
3.42314 °/min
Orbital period
105.17 mins
BSTAR
0.00018332
Loading maneuver chart data...
Loading SW <> Apogee altitude chart data...

THOR ABLESTAR DEB Visibility forecast

Observer location: undefined°, undefined°

Span
Click to sort rows by Start time (UTC) header in descending order
Start Az.
Max El. time (UTC)
Max El. Az.
Max El.
End time (UTC)
End Az.
11 mins2025-07-01 10:22:38.415Z163.664° S2025-07-01 10:28:38.415Z76.606° E42.176°2025-07-01 10:33:38.415Z5.645° NNE
6 mins2025-07-01 12:11:38.415Z253.964° W2025-07-01 12:13:38.415Z276.076° WNW16.886°2025-07-01 12:17:38.415Z318.696° NNW
8 mins2025-07-01 21:25:38.415Z40.013° NE2025-07-01 21:29:38.415Z87.388° E21.036°2025-07-01 21:33:38.415Z128.9° SE
10 mins2025-07-01 23:09:38.415Z348.808° N2025-07-01 23:14:38.415Z273.736° WNW38.503°2025-07-01 23:19:38.415Z206.21° SW
|